Regional Weather Roundup
Issued by NWS Sioux Falls, SD

Home | Current Version | Previous Version | Text Only | Print | Product List | Glossary On
Versions: 1 2 3 4 5 6 7 8 9 10 11 12 13 14 15 16 17 18 19 20 21 22 23 24 25 26 27 28 29 30 31 32 33 34 35 36 37 38 39 40 41 42 43 44 45 46 47 48 49 50
000
ASUS43 KFSD 161802
RWRFSD

WEATHER ROUNDUP FOR SE SOUTH DAKOTA/SW MINNESOTA/NW IOWA
NATIONAL WEATHER SERVICE SIOUX FALLS SD
100 PM CDT WED APR 16 2014

NOTE: "FAIR" INDICATES FEW OR NO CLOUDS BELOW 12,000 FEET WITH NO
SIGNIFICANT WEATHER AND OR OBSTRUCTIONS TO VISIBILITY.


SDZ038>040-050-052>070-161900-
SOUTHEAST SOUTH DAKOTA

CITY           SKY/WX    TMP DP  RH WIND       PRES   REMARKS
CHAMBERLAIN      N/A     32  27  81 N24G31    29.87  WCI  19
HURON          LGT SNOW  31  27  85 N20G30    29.83R FOG     WCI  19
6HR MIN TEMP:  30; 6HR MAX TEMP:  34; 6HR PCP:  0.17;

MITCHELL       CLOUDY    35  32  88 N23G29    29.76R FOG     WCI  23
6HR MIN TEMP:  34; 6HR MAX TEMP:  44; 6HR PCP: TRACE;

SIOUX FALLS    LGT RAIN  47  34  60 SE5       29.65S
6HR MIN TEMP:  43; 6HR MAX TEMP:  48; 6HR PCP:  0.06;

WINNER         CLOUDY    34  29  82 NW21G28   29.88R WCI  22
YANKTON        FAIR      55  36  47 S15G22    29.60F
$$

MNZ071-072-080-081-089-090-097-098-161900-
SOUTHWEST MINNESOTA

CITY           SKY/WX    TMP DP  RH WIND       PRES   REMARKS
FAIRMONT       PTSUNNY   52  30  43 S25G33    29.74F
JACKSON        CLOUDY    50  28  43 S18G24    29.71F
LUVERNE        LGT RAIN  46  37  71 CALM      29.68R
MARSHALL       CLOUDY    34  28  80 E17       29.77S WCI  23
6HR MIN TEMP:  34; 6HR MAX TEMP:  36; 6HR PCP:  0.02;

MONTEVIDEO     SNOW      32  30  93 E22       29.85S VSB 1/2 WCI  19
PIPESTONE      LGT RAIN  36  34  93 NE15      29.70R
REDWOOD FALLS  LGT SNOW  33  32  96 VRB6      29.82R VSB 3/4 WCI  28
TRACY          SNOW      33  32  96 NE14G23   29.77R VSB 1/4 WCI  23
WINDOM         FAIR      50  28  43 S13G23    29.70F
WORTHINGTON    PTSUNNY   46  28  49 S14       29.69F
$$

IAZ001>003-012>014-020>022-031-032-NEZ013-014-SDZ071-161900-
NORTHWEST IOWA

CITY           SKY/WX    TMP DP  RH WIND       PRES   REMARKS
DENISON        FAIR      55  30  38 S28G41    29.70R
ESTHERVILLE    FAIR      54  33  45 S26G38    29.71F
SIOUX CITY     FAIR      59  27  29 S26G36    29.68F
6HR MIN TEMP:  48; 6HR MAX TEMP:  61;

SPENCER        PTSUNNY   54  31  41 S26G35    29.69F
6HR MIN TEMP:  40; 6HR MAX TEMP:  54;

STORM LAKE     FAIR      54  32  43 S22G31    29.71F
$$

ABBREVIATIONS USED IN REMARKS
   TC - TEMPERATURE IN CELSIUS
  WCI - WIND CHILL INDEX
   HX - HEAT INDEX
  VSB - VISIBILITY




USA.gov is the U.S. government's official web portal to all federal, state and local government web resources and services.